Voltar ao catálogo

STARLINK-37207

AtivoComunicaçõesSSO
NORAD 100184·PAYLOAD·🇺🇸 United States

Lançado Aug 1, 2026 de Vandenberg Space Force Base

Loading…

Próximas Passagens (próximas 24 horas)

TLE

AtualizadoSource: Space-Track

Época: Sep 14, 2026, 13:17 UTC

1 A0184U 26175F   26257.55385038  .00173952  00000-0  11416-2 0  9995
2 A0184  97.2842  99.7488 0001762  73.9631 286.1828 15.75228415  8246

Acompanhe STARLINK-37207 em tempo real com AllMySat

Download on the App Store